Theta_e
319 318 316 317 317 317 318 319 318 319 321 320 319 318 316 315 315 314 312 314 312 314 312 312 311 311 313 315 315 315 312 311 310 310 309 310 311 313 321 323 327 329 330 330 329 328 328 328 328 328 329 327 330 330 330 328 328 326 325 325 324 323 322 322 321 321 321 321 320 320 320 320 320 319 319 318 318 318 317 317 317 317 316 316 316
320 318 317 317 316 316 316 316 317 316 318 319 318 315 315 313 313 314 314 314 313 314 311 314 313 314 313 315 316 320 319 314 309 309 311 311 311 311 318 321 324 328 327 326 325 325 325 326 326 326 325 326 330 330 329 328 326 325 324 325 323 322 321 321 321 320 320 320 319 319 319 319 319 318 318 317 317 317 317 316 316 316 315 315 315
320 319 318 317 317 316 316 316 315 316 317 318 316 316 315 316 316 315 314 314 314 313 313 315 315 315 314 313 317 317 317 312 309 308 310 312 310 310 313 319 322 325 326 323 323 323 323 324 326 325 326 329 330 329 327 326 324 324 325 324 322 321 321 321 320 320 320 319 319 319 319 318 318 317 317 317 317 316 316 315 315 315 315 314 314
321 320 319 319 317 317 316 316 317 317 317 317 316 315 316 316 314 314 313 312 314 313 313 312 314 315 311 312 315 314 313 312 310 309 310 310 310 310 312 313 318 320 323 322 322 322 324 325 326 326 329 331 330 328 326 325 324 323 324 323 322 321 321 320 320 320 319 319 318 318 318 318 317 317 316 316 316 316 315 315 315 314 314 314 314
321 320 319 319 319 318 317 316 317 317 317 317 316 316 315 315 315 313 311 310 312 314 312 309 312 314 310 313 311 313 315 313 310 309 311 311 313 315 314 312 311 316 317 320 322 323 324 326 327 327 330 329 327 325 325 324 324 324 323 323 321 321 321 320 320 319 319 318 318 317 317 317 317 316 316 315 315 315 315 314 314 314 314 313 314
321 320 320 319 319 318 318 318 318 317 317 317 317 316 316 314 316 311 314 313 313 314 312 314 313 311 310 312 310 314 315 313 315 316 316 313 313 316 316 312 310 308 310 317 319 322 324 326 327 328 328 325 323 324 324 323 324 324 323 323 323 321 320 320 319 319 318 318 317 317 316 316 316 315 315 315 314 314 314 314 314 313 313 313 313
321 321 320 319 319 319 319 320 319 318 317 317 318 317 316 316 314 314 314 312 313 314 314 314 313 314 314 309 312 313 311 315 314 315 314 315 315 315 314 313 311 309 309 307 309 312 319 324 326 325 324 323 323 323 323 323 323 323 323 323 322 321 320 319 319 318 318 317 317 316 316 315 315 315 314 314 314 314 313 313 313 313 313 313 312
321 321 321 320 320 319 320 320 319 318 317 317 317 317 316 316 315 315 314 314 313 314 312 313 313 313 312 310 310 309 310 311 312 311 313 313 312 313 314 312 310 308 308 306 304 307 315 320 324 324 323 322 322 322 322 322 323 322 322 322 321 320 319 318 318 317 317 316 316 315 315 314 314 314 314 313 313 313 313 313 313 313 312 312 312
322 321 322 321 320 320 320 320 320 319 318 317 316 317 317 316 315 314 315 316 314 313 313 312 313 313 312 311 312 310 310 313 315 314 313 313 312 312 312 310 309 307 307 304 303 303 309 314 317 318 318 322 322 321 321 323 323 322 321 320 320 319 318 317 316 316 315 315 315 314 314 314 313 314 313 313 313 312 312 312 312 312 312 312 312
322 322 322 322 321 321 321 320 319 319 319 317 317 317 316 316 316 315 315 315 314 313 314 313 311 312 313 311 312 309 311 312 313 310 314 313 311 311 312 311 308 308 307 303 302 301 302 308 312 312 312 316 321 321 322 322 322 322 321 320 319 319 318 316 316 315 315 314 314 314 313 313 313 313 313 312 312 312 312 311 312 311 311 312 311
322 322 321 321 321 321 321 320 319 319 318 318 317 316 315 315 316 316 314 315 317 315 315 313 312 310 311 313 310 310 311 310 311 312 313 314 313 312 310 308 307 306 305 302 301 299 298 297 298 300 304 311 317 318 320 321 320 321 320 320 319 318 316 315 315 314 314 313 313 312 313 312 312 312 312 311 311 311 311 311 311 311 311 311 311
322 322 322 321 321 321 321 320 319 319 318 317 317 317 316 315 315 316 316 313 312 313 310 310 308 307 309 310 308 307 309 309 309 311 312 312 311 309 309 305 304 303 302 301 300 297 296 295 297 297 299 306 310 311 315 318 318 319 319 319 319 318 315 314 314 313 313 313 312 312 312 312 312 311 311 311 310 311 311 311 311 311 310 311 311
321 322 322 320 321 321 321 320 319 318 318 319 319 318 318 317 317 314 315 314 313 311 310 309 309 309 307 308 310 307 307 306 311 312 311 311 308 310 308 306 304 303 302 301 299 295 294 294 294 294 295 295 298 306 309 311 313 318 318 318 318 318 317 315 313 312 312 312 312 311 311 311 311 311 311 311 310 310 311 311 310 310 310 310 310
321 322 322 322 321 321 320 320 319 318 319 320 319 316 317 316 314 313 311 314 314 313 312 313 307 310 306 305 303 308 306 306 308 310 311 310 310 309 307 307 305 302 301 300 298 295 294 293 291 291 290 291 292 293 295 296 300 313 317 317 317 317 317 315 314 312 311 311 312 310 310 310 310 310 310 310 310 310 310 310 310 310 310 309 309
322 321 322 322 322 321 321 321 320 319 318 318 318 317 317 317 316 316 314 308 311 310 312 315 312 301 303 308 307 305 304 303 305 306 308 308 307 308 307 307 307 304 302 301 299 295 295 293 290 289 289 289 291 292 293 299 299 306 310 311 314 317 316 315 314 313 311 311 311 310 309 309 309 309 309 309 310 310 310 310 309 309 309 309 308
322 322 321 323 322 322 322 320 321 319 319 319 318 318 318 317 317 316 316 314 309 312 311 313 313 311 307 311 305 303 304 301 301 304 305 307 307 307 306 307 306 303 301 301 299 297 296 294 291 290 290 290 290 291 292 291 299 303 303 303 308 314 316 315 313 312 312 310 310 309 309 308 309 309 309 309 309 309 309 309 309 308 308 308 308
322 322 321 322 322 322 322 321 320 320 319 319 319 319 319 319 318 317 316 316 314 310 308 311 313 316 314 306 304 303 305 300 299 303 302 304 304 306 306 307 305 304 301 300 298 297 297 295 293 290 290 290 290 290 291 291 292 295 294 298 304 307 312 314 313 312 311 310 309 309 309 308 308 308 308 308 309 309 309 308 308 308 308 308 307
322 321 321 320 322 322 321 321 320 319 318 319 319 319 318 318 318 318 317 316 317 311 309 306 313 313 315 317 314 311 303 300 303 299 298 303 302 304 305 304 304 303 302 300 298 298 297 297 294 291 290 290 289 289 289 289 291 289 287 292 306 307 307 310 312 311 311 310 308 308 308 308 308 308 308 307 308 308 308 308 308 307 307 307 307
321 321 321 320 320 321 321 321 320 319 318 318 318 318 318 318 318 318 318 317 315 315 314 312 308 311 313 313 310 305 307 307 306 298 299 302 303 302 303 302 302 302 302 302 300 299 298 297 296 291 290 289 289 288 289 290 295 294 303 304 307 306 306 305 307 309 310 309 308 307 308 308 308 307 307 307 307 307 307 307 307 307 307 307 307
321 321 321 321 319 320 320 320 320 319 317 317 318 318 317 317 317 318 318 318 317 316 316 313 313 312 311 313 312 309 305 306 307 310 307 299 303 303 301 302 301 301 302 302 301 300 299 298 297 292 290 289 288 288 289 289 290 293 298 305 308 307 306 305 304 304 305 306 306 306 307 307 307 307 306 306 306 307 307 307 307 307 307 307 306
321 321 321 321 319 320 320 320 320 319 316 317 317 317 317 317 316 316 317 318 318 318 318 317 314 315 310 312 313 313 311 309 307 307 307 304 304 305 302 297 299 300 300 301 301 301 300 300 299 294 291 289 288 288 287 287 286 288 295 304 308 308 307 306 303 303 303 302 303 303 305 306 306 306 306 306 306 306 306 306 307 306 306 306 306
320 321 321 321 321 320 320 321 320 320 317 318 318 318 319 319 320 320 320 320 320 319 319 320 319 318 318 317 314 313 312 310 308 307 304 305 306 303 305 300 298 300 300 299 299 299 300 300 298 295 292 290 288 287 286 286 285 287 293 301 306 308 308 307 304 303 302 302 301 301 303 304 305 306 305 305 306 306 306 306 306 306 306 305 305
320 321 322 322 322 322 321 322 322 322 321 322 322 321 321 321 321 321 321 321 321 321 319 319 320 319 319 318 318 316 315 313 312 311 310 302 302 302 305 303 304 302 299 299 298 299 299 299 297 295 293 291 289 287 286 285 287 289 293 299 302 305 307 307 305 304 303 302 302 302 302 302 302 303 304 304 305 306 306 305 305 305 305 305 304
322 324 324 325 325 325 324 324 323 324 324 324 324 324 324 324 323 322 322 322 322 321 321 320 319 320 320 319 318 318 317 316 316 314 312 312 310 308 306 300 299 302 295 295 295 297 298 298 298 296 293 291 290 289 287 286 286 291 292 297 301 303 304 306 305 304 303 302 302 301 302 301 301 302 302 303 304 305 305 304 304 304 304 303 303
323 324 325 326 326 326 326 325 325 325 326 326 326 327 326 326 325 324 323 323 322 322 321 321 321 320 320 321 320 320 319 319 319 317 316 315 312 309 305 302 304 301 298 293 294 294 297 298 298 296 294 292 292 290 288 286 286 290 292 293 299 301 302 303 305 303 302 302 301 301 301 301 301 302 302 302 302 303 303 303 303 303 303 303 302
322 323 325 326 326 327 327 327 327 327 326 326 327 327 326 326 326 325 324 324 324 323 323 322 322 322 322 321 320 319 319 320 318 316 314 311 309 308 305 299 302 301 292 293 292 293 295 297 298 298 295 293 292 291 289 287 286 290 292 290 295 299 300 301 303 303 303 301 301 300 300 300 300 301 301 301 301 301 302 302 302 302 302 301 301
320 322 321 323 324 325 326 327 327 327 327 326 326 326 326 325 325 324 324 324 323 322 323 322 322 322 321 321 319 319 319 318 317 315 315 314 312 310 308 304 297 294 294 292 292 293 297 295 298 298 296 293 292 291 290 288 288 290 291 288 289 296 298 299 301 302 302 301 301 300 300 299 299 300 300 300 300 299 300 300 300 300 300 300 300
319 318 320 321 323 323 324 325 327 327 327 326 326 326 325 325 324 324 323 323 323 322 321 321 321 321 321 321 321 320 320 319 319 318 316 315 314 312 308 308 306 299 292 293 291 293 296 295 295 297 296 294 291 291 290 289 288 291 290 285 286 289 295 297 299 301 301 301 300 299 299 299 299 299 299 299 298 298 298 298 298 298 298 298 298
317 316 318 319 322 322 323 325 326 326 326 326 326 326 325 324 323 323 323 323 321 321 321 321 321 321 321 321 321 321 319 318 318 317 316 313 313 313 312 310 309 307 296 294 296 295 295 295 296 295 296 295 292 290 289 288 289 289 286 284 284 284 291 296 299 300 301 300 299 299 299 299 298 298 298 298 298 297 297 297 297 297 297 297 298
317 317 317 318 319 316 323 324 325 325 325 326 325 325 325 324 324 323 323 323 322 321 320 320 319 320 320 320 320 320 318 316 316 316 314 314 313 312 311 312 312 309 307 301 300 298 296 293 295 294 293 295 293 289 288 288 289 289 285 283 283 283 290 294 297 299 299 299 298 298 298 298 298 298 297 297 297 297 296 296 296 296 297 297 297
313 315 315 316 317 319 321 323 324 324 325 325 324 324 324 323 323 323 324 323 322 320 319 317 317 317 318 317 317 317 315 315 315 314 314 314 314 313 312 311 310 311 311 307 303 298 298 295 294 294 293 294 292 290 288 287 288 289 284 283 283 286 290 291 294 296 297 297 297 297 297 298 298 297 296 296 296 295 295 295 295 295 295 295 295
314 314 315 314 314 315 317 319 321 322 323 323 324 323 323 323 322 321 322 321 320 319 315 314 316 315 315 314 314 316 316 314 315 314 315 314 313 313 313 312 310 309 308 305 302 305 293 295 294 293 293 293 290 288 286 286 287 289 284 283 283 287 287 286 292 294 295 295 296 296 297 297 296 295 295 295 294 293 293 294 294 294 294 293 293
312 312 313 313 313 314 316 317 319 320 320 321 321 321 320 320 318 316 313 315 315 311 311 312 311 313 313 315 315 314 313 312 313 314 313 313 310 310 310 309 309 307 305 304 305 304 294 285 287 291 291 291 286 287 286 285 284 287 286 283 283 284 284 284 284 290 292 293 294 294 295 294 294 294 294 293 292 291 292 292 292 292 291 291 291
309 311 310 311 310 312 314 315 315 316 317 319 318 319 318 318 318 317 314 313 312 311 309 309 308 311 314 315 315 315 311 311 311 311 312 311 308 307 305 306 308 306 303 304 304 304 303 287 285 284 286 287 287 286 287 284 284 285 284 283 283 283 284 283 282 283 291 292 292 293 293 293 293 293 292 290 290 291 291 291 291 290 290 290 289
301 306 307 307 308 309 310 311 313 313 315 315 315 315 315 315 315 315 316 314 313 311 309 309 311 310 310 310 312 312 309 308 310 311 309 308 305 304 304 302 303 304 298 301 301 298 299 297 285 285 286 286 288 287 286 286 286 286 285 283 283 283 283 282 282 282 288 291 292 292 292 293 293 292 290 289 289 289 290 290 289 289 289 288 288
301 300 303 304 304 305 306 307 308 309 311 311 311 311 315 314 314 314 311 309 309 309 310 310 310 309 310 309 308 308 306 306 307 306 303 302 302 303 303 301 300 300 295 294 298 300 295 296 286 287 287 287 287 285 286 285 284 285 285 284 282 283 282 282 281 281 286 291 291 291 292 292 292 290 289 288 289 289 289 289 288 288 288 287 287
300 299 298 299 301 303 306 307 309 308 308 310 312 311 309 308 308 308 307 307 307 307 308 309 304 308 308 307 309 307 304 304 303 302 301 299 301 301 300 296 295 296 294 293 293 293 294 294 292 287 286 286 284 282 284 284 284 284 284 284 283 282 280 280 281 282 286 290 290 290 290 290 290 289 288 288 288 288 288 288 287 287 286 286 285
298 297 300 298 301 303 303 306 306 307 305 303 304 305 303 302 301 302 302 303 304 306 306 306 307 307 307 307 307 305 303 303 303 303 300 298 296 294 293 292 291 292 292 291 291 291 292 293 292 286 284 284 282 281 283 285 284 283 282 282 281 280 279 280 279 281 281 282 281 284 287 288 288 287 287 287 287 288 288 287 286 285 285 284 285
298 298 296 298 296 298 299 300 300 301 302 300 300 301 302 302 302 302 302 301 302 302 303 304 304 303 304 304 304 302 302 301 302 302 300 297 296 295 294 293 291 291 291 290 289 289 289 290 288 287 286 285 285 284 284 284 284 283 283 281 280 279 279 279 279 280 280 281 284 285 285 284 284 284 285 286 287 287 286 285 284 284 283 283 284
297 296 297 298 296 295 296 298 298 296 297 298 298 299 300 301 299 299 299 300 299 299 298 299 299 299 299 300 300 300 301 301 301 300 299 298 296 294 292 291 291 291 292 290 288 288 288 287 287 286 285 285 285 283 282 283 283 282 282 281 281 280 279 278 279 279 280 279 279 282 285 284 284 283 285 285 285 285 285 284 282 282 282 282 284
293 294 295 295 295 294 293 293 294 294 297 299 298 298 297 296 297 298 299 298 297 298 297 294 293 295 295 295 296 296 296 294 294 296 296 297 297 295 291 291 290 290 289 288 288 288 288 288 287 285 285 284 284 283 282 282 282 284 283 281 280 280 279 278 278 279 280 279 280 280 280 280 279 279 279 279 280 282 282 282 281 281 281 282 284
292 291 291 292 295 295 295 293 292 292 295 296 293 294 295 297 296 297 296 295 295 295 294 293 292 291 293 292 293 292 292 292 292 293 294 294 294 296 294 291 291 290 290 289 288 288 288 287 287 287 285 285 284 283 284 284 284 282 281 281 279 277 275 276 278 280 280 280 278 278 279 280 279 279 279 278 279 280 279 279 277 279 280 283 284
292 291 290 293 292 291 293 293 292 293 294 295 293 295 295 295 295 295 296 295 293 291 291 291 292 291 290 292 291 290 289 289 290 291 292 292 292 293 293 292 292 292 290 289 288 288 288 288 288 286 286 286 285 284 284 284 283 283 281 279 280 277 278 278 278 279 279 279 279 278 278 279 279 277 278 278 278 278 278 277 280 281 282 283 284
290 290 291 293 294 293 293 292 293 293 293 292 294 295 295 295 294 294 294 294 293 292 290 290 289 290 290 290 289 289 289 290 289 289 290 290 291 291 291 291 291 291 292 291 290 288 287 288 288 287 286 286 286 284 283 283 282 281 280 278 278 278 277 278 279 279 279 279 278 277 277 279 278 276 276 278 278 277 277 279 281 282 283 284 284
289 290 292 292 292 290 291 292 292 291 290 291 293 294 294 295 295 293 292 293 291 290 290 289 290 290 289 289 289 288 288 287 287 288 289 289 288 289 289 289 289 290 292 292 292 289 288 288 288 287 285 285 284 283 283 282 280 278 276 276 277 278 279 279 280 277 276 278 277 276 275 277 276 276 276 278 277 277 277 280 281 282 282 283 283
290 290 290 290 290 290 290 292 292 290 290 290 293 294 294 294 294 294 293 291 290 290 289 289 289 289 288 288 288 289 287 287 288 288 288 288 288 288 288 288 288 287 288 289 289 289 287 287 286 286 286 283 283 281 279 281 279 278 278 278 279 279 279 280 279 278 277 278 277 275 272 274 276 275 275 277 278 277 276 278 280 281 282 283 283
290 290 290 290 290 289 289 289 289 290 290 291 293 293 293 294 294 294 291 291 290 289 288 289 289 288 288 289 288 289 287 287 287 287 287 287 287 286 286 286 286 285 285 285 285 286 286 284 284 284 282 281 280 278 278 281 281 281 280 279 280 281 279 277 276 277 276 278 277 277 274 271 272 274 275 276 276 276 276 278 280 281 282 283 282
289 289 289 289 289 289 288 288 289 290 290 291 292 292 293 294 295 291 289 289 289 288 288 288 287 287 287 288 289 288 287 287 286 288 287 286 286 286 286 285 283 282 281 283 286 286 284 283 282 280 279 279 283 280 279 280 279 278 278 278 279 277 277 276 277 275 274 277 277 276 273 271 273 273 274 275 275 275 276 275 278 280 281 282 281
289 289 289 288 289 289 288 288 289 289 289 290 291 291 292 294 292 289 289 288 289 289 288 287 288 287 288 288 288 287 287 286 287 289 289 287 285 285 285 284 283 279 281 280 284 287 287 286 286 286 286 286 287 287 287 287 283 279 277 276 276 277 277 276 277 275 275 274 276 276 274 272 273 272 272 273 273 273 274 275 275 278 281 282 280
289 289 289 288 287 288 288 288 289 289 289 288 290 291 292 293 291 289 289 289 287 288 287 286 286 286 286 286 286 287 287 286 287 289 290 287 285 285 284 281 279 278 279 277 278 277 285 286 286 287 287 287 287 288 288 288 286 283 280 279 279 277 277 278 278 276 272 272 274 277 273 273 271 272 270 272 270 271 272 273 274 274 278 280 279
289 289 288 288 287 287 287 288 287 288 288 288 289 291 292 292 290 289 288 288 288 287 287 285 284 284 284 285 285 286 286 286 288 289 290 287 285 284 282 279 278 278 279 274 275 275 275 276 275 276 277 281 282 281 282 288 286 284 282 281 279 278 278 278 277 272 272 273 273 277 273 273 271 272 271 269 269 271 268 269 272 273 273 273 272
Wind_Speed
5 5 3 4 4 4 4 4 3 4 3 4 3 4 3 3 3 5 3 4 4 5 4 4 3 3 4 4 4 4 3 2 2 2 2 3 2 3 3 4 3 5 4 4 3 3 3 3 4 1 1 2 7 7 9 10 10 10 10 10 11 11 11 11 11 11 10 11 11 11 12 12 12 12 13 13 14 13 14 14 14 15 15 15 16
5 4 5 5 4 4 4 4 5 4 4 5 5 4 5 3 4 4 5 5 4 6 3 4 3 3 4 5 4 4 5 3 2 3 3 3 3 3 3 3 4 1 3 2 3 2 3 4 3 3 2 4 8 9 10 10 10 10 10 10 11 11 11 11 10 10 10 10 10 11 11 11 12 12 12 13 13 13 13 13 14 14 14 14 14
5 5 5 5 4 4 5 5 5 5 5 5 3 5 4 5 5 5 5 5 5 5 4 5 5 5 4 3 6 4 5 2 1 2 3 3 2 2 1 2 1 3 2 1 2 3 3 3 4 3 5 7 9 9 8 9 10 9 10 10 10 10 10 10 9 9 9 9 10 10 10 11 11 11 12 12 12 12 12 12 13 13 13 13 13
6 5 6 5 5 5 5 5 6 5 5 5 5 4 4 5 4 4 4 3 5 5 4 4 6 6 4 4 4 4 5 3 1 1 2 2 2 1 0 0 1 3 2 1 2 3 3 4 5 4 7 9 9 7 8 9 9 9 10 10 10 10 9 9 9 9 9 9 9 9 10 10 10 10 11 11 11 11 11 11 12 12 12 12 13
6 6 6 6 6 6 6 6 6 5 5 4 4 4 4 5 6 3 4 3 4 6 4 2 4 5 3 4 3 4 4 3 2 3 3 3 3 2 2 1 0 2 2 2 3 4 4 5 8 4 8 8 7 8 8 8 8 9 9 10 9 9 9 8 8 8 8 8 8 8 9 10 10 10 10 10 10 10 11 11 11 11 12 12 13
6 6 6 6 7 7 7 7 6 5 5 5 5 5 5 5 7 4 6 5 6 6 5 6 6 5 4 4 2 5 4 4 3 4 3 3 3 3 4 3 1 1 0 2 4 5 6 8 11 9 9 7 7 8 8 8 8 8 9 9 9 9 8 8 8 8 8 8 8 8 8 8 9 9 9 9 9 9 10 10 10 11 11 12 13
7 7 7 7 7 7 7 7 6 5 5 5 6 5 5 7 6 6 5 5 5 6 6 6 6 6 6 2 4 4 3 5 2 4 5 5 5 4 3 3 2 1 0 0 4 5 6 8 9 7 7 7 7 7 7 8 8 8 8 8 8 8 8 8 8 8 7 7 7 7 7 8 8 8 8 9 8 9 9 9 10 11 11 12 12
7 7 7 7 7 8 8 7 6 5 6 6 6 6 6 6 6 5 5 6 6 7 5 6 6 6 5 3 4 3 4 3 4 3 3 3 3 3 4 4 3 2 1 0 1 3 7 8 11 9 3 6 7 8 8 8 8 8 7 7 8 8 8 7 7 7 6 6 6 6 6 7 7 7 8 8 8 8 9 9 9 10 11 12 12
8 8 8 8 8 8 7 7 6 7 6 6 6 6 6 6 6 6 6 7 6 6 6 5 6 6 5 4 5 4 4 5 5 4 4 4 4 4 4 4 4 3 2 1 1 2 5 8 8 9 10 4 7 7 8 8 7 7 7 7 7 7 7 7 6 6 5 5 5 5 6 6 6 7 7 7 7 7 8 8 9 10 10 11 12
8 8 8 8 8 8 7 7 6 6 6 6 7 5 5 6 7 6 6 6 6 6 7 5 5 5 6 5 6 4 5 5 4 3 5 5 5 6 6 5 5 5 4 2 2 3 3 5 8 8 8 8 3 8 8 8 7 7 7 7 7 7 7 6 6 5 4 4 4 4 5 5 5 6 6 7 7 7 7 8 8 9 10 11 11
8 8 8 8 7 7 8 7 6 6 6 6 6 6 6 6 7 7 5 7 7 6 7 4 5 4 5 6 4 4 5 4 2 4 5 5 6 6 3 4 4 4 4 3 2 3 3 3 3 4 4 7 8 1 7 9 8 7 7 6 6 6 6 6 5 4 4 3 3 4 4 4 5 5 6 6 6 6 7 7 8 8 10 10 11
9 9 9 8 8 8 8 7 7 6 7 7 7 7 8 7 8 8 8 5 4 5 4 3 3 3 6 6 5 4 5 5 3 4 4 5 5 5 6 4 3 3 3 3 3 3 3 3 3 3 3 4 5 7 9 6 3 8 7 6 6 6 6 5 5 4 3 2 2 3 3 4 4 5 5 5 5 6 6 7 8 8 9 10 11
9 9 9 9 8 8 8 7 6 6 7 9 8 8 8 8 7 5 7 7 5 4 3 1 1 5 3 5 6 4 4 3 5 5 5 5 4 6 5 5 5 5 4 3 3 3 3 3 3 3 3 3 2 5 6 5 8 5 7 7 6 6 6 5 5 4 2 2 1 2 3 3 4 4 5 5 5 6 6 7 8 8 9 10 10
9 9 9 9 9 8 8 8 7 7 8 7 6 6 6 6 5 5 4 8 7 5 4 4 2 5 4 4 3 5 4 3 4 5 5 4 5 6 6 6 6 5 3 3 3 3 3 3 3 3 3 3 2 1 1 2 3 7 5 5 6 7 6 5 5 4 3 1 1 2 2 3 3 4 5 5 6 6 6 7 7 8 9 9 10
10 9 9 9 9 9 8 7 7 7 7 7 7 8 7 8 8 9 6 4 5 2 5 8 6 2 1 1 3 3 5 3 3 4 4 4 5 5 5 6 7 5 5 4 4 4 3 3 4 4 4 4 3 3 1 0 2 4 5 5 7 8 6 6 5 4 3 2 1 1 1 2 3 3 4 5 6 6 7 7 7 8 8 9 9
9 9 9 9 9 10 8 7 8 7 8 9 8 10 8 8 8 9 7 6 4 6 5 7 6 5 3 4 2 1 6 4 4 4 2 4 6 5 4 5 4 4 4 6 6 5 5 4 4 4 4 5 4 4 4 2 1 1 3 5 6 3 8 6 6 4 4 3 1 0 0 1 3 3 4 4 6 6 7 7 7 7 8 8 9
9 10 9 10 9 9 9 8 8 8 8 9 9 10 9 8 9 8 9 10 9 4 4 6 8 7 6 3 2 1 5 4 2 5 0 2 3 4 5 5 6 6 6 5 4 6 6 5 5 4 5 5 5 5 4 3 2 1 1 4 4 5 3 7 6 5 4 3 2 1 1 1 2 3 3 4 5 6 7 7 7 8 8 8 9
9 9 9 9 9 9 9 8 8 8 8 9 8 7 8 8 8 8 9 8 9 5 4 4 7 8 8 9 6 6 2 2 1 4 1 1 2 3 4 4 4 5 5 6 7 7 6 7 6 6 6 5 5 5 5 4 3 2 3 2 4 4 1 2 6 5 4 3 2 1 1 2 2 2 3 4 5 6 6 7 7 8 8 8 9
9 8 8 8 8 8 8 9 8 8 7 8 9 9 8 8 6 7 9 8 6 9 9 6 2 6 7 8 4 3 3 5 7 1 3 1 1 3 3 4 4 4 6 7 7 7 7 6 7 7 6 5 5 4 4 5 5 5 6 6 8 6 6 3 2 2 2 2 2 2 2 3 3 3 3 4 5 6 6 6 7 8 8 8 9
9 8 8 8 8 8 8 8 9 8 7 8 9 8 7 5 7 8 8 7 8 10 9 6 8 6 7 9 8 5 3 3 2 7 6 3 3 0 1 5 5 6 7 8 8 9 8 8 8 7 6 6 5 5 5 5 5 5 5 8 9 9 8 7 5 3 2 1 2 2 3 3 4 3 4 5 6 6 7 7 8 9 9 9 10
8 8 8 9 8 8 8 9 9 9 8 8 7 7 8 7 7 7 8 9 9 10 9 9 8 9 5 7 8 9 8 8 5 5 8 7 5 5 3 0 2 5 8 8 7 8 9 10 9 8 7 7 6 6 6 6 6 6 6 10 10 10 10 9 7 6 4 3 3 4 4 4 5 5 5 5 6 7 7 7 8 9 10 10 11
7 8 8 8 9 8 9 10 10 9 8 9 8 8 8 8 9 9 9 10 9 10 11 10 9 9 10 9 8 7 7 4 3 4 2 4 7 6 7 8 6 9 7 8 10 8 8 7 6 7 8 8 7 7 6 6 6 6 7 10 10 11 11 10 10 9 7 6 6 5 6 6 5 5 5 5 6 7 7 8 8 10 11 11 11
6 7 8 8 8 9 9 10 9 9 9 9 9 9 9 9 9 10 10 11 9 10 11 12 10 10 11 11 12 12 11 12 11 7 7 3 3 4 5 9 12 7 8 10 9 9 8 7 7 8 8 7 6 6 6 6 6 7 11 10 10 10 11 11 11 10 9 9 8 8 7 6 6 5 5 6 7 8 8 8 9 10 11 11 11
7 7 8 9 9 9 10 10 10 10 10 9 9 9 9 9 9 10 11 13 13 11 11 11 12 11 11 10 10 9 9 10 10 9 10 11 11 10 8 3 2 6 1 3 5 7 9 8 7 8 7 6 7 8 7 7 7 11 10 11 11 12 12 12 12 11 10 10 9 8 7 7 6 6 5 6 7 7 8 8 8 10 11 12 11
8 9 9 10 10 10 9 9 9 9 10 9 9 10 9 9 9 9 10 11 10 11 10 14 15 14 12 11 12 13 13 10 8 10 10 8 8 10 5 5 8 5 5 2 4 4 6 6 8 7 7 7 7 8 8 7 7 10 11 9 13 11 13 13 13 12 11 11 10 9 9 8 7 6 6 6 7 7 7 8 8 9 11 12 11
9 10 9 10 9 9 10 10 9 9 9 10 10 10 10 9 9 9 9 9 9 13 14 14 13 15 12 10 10 10 11 11 11 7 7 5 6 8 7 5 5 4 2 1 1 1 5 8 8 8 7 9 9 9 9 9 7 10 11 7 10 12 12 10 11 12 12 12 11 11 10 9 8 7 6 6 6 7 7 8 8 9 11 12 11
9 9 8 9 10 10 10 10 10 10 10 10 10 10 10 9 9 10 9 6 6 7 8 10 11 11 11 10 9 8 7 6 6 7 7 9 9 9 8 7 3 2 3 2 3 8 10 3 9 9 10 9 9 9 9 8 8 10 11 8 7 11 11 12 12 12 13 13 12 12 11 10 9 7 6 5 6 6 7 7 8 9 10 11 11
8 6 8 9 9 10 10 11 10 10 10 11 11 10 10 10 9 10 11 8 10 12 10 8 9 10 10 11 12 12 11 11 12 12 11 10 11 8 7 9 10 7 4 5 6 10 8 7 4 9 10 10 9 8 8 9 8 13 12 7 7 7 10 13 14 14 14 14 13 12 12 11 9 8 7 6 5 6 6 7 7 8 10 11 11
6 7 8 8 9 9 10 10 11 10 10 10 11 11 11 11 9 8 10 11 10 9 9 9 8 8 9 11 11 10 8 6 7 8 8 6 7 8 9 11 11 9 5 7 10 10 7 11 10 8 12 9 10 8 9 10 10 12 9 8 7 6 9 14 16 16 15 15 14 13 13 11 10 8 7 6 6 6 6 7 8 9 10 11 12
8 7 8 8 8 9 9 10 9 10 11 10 10 10 9 8 11 10 8 8 11 11 11 9 6 6 7 8 8 9 7 7 7 7 7 8 9 9 10 10 8 10 9 10 10 9 6 4 8 6 6 11 9 9 9 11 11 14 10 10 9 8 12 16 16 16 15 14 14 13 12 11 10 8 7 6 5 6 6 7 8 9 10 12 12
7 7 7 8 8 9 9 10 9 10 10 10 9 9 9 8 7 9 10 8 9 9 6 8 8 7 7 8 7 7 5 6 7 7 9 10 10 10 9 8 9 12 12 9 9 5 7 9 10 6 6 9 9 9 7 7 10 13 10 9 9 11 14 12 15 15 14 14 13 12 12 11 10 8 6 5 5 4 5 6 7 9 10 11 11
8 8 8 9 8 8 8 9 9 9 9 8 9 9 9 9 7 7 9 10 10 9 6 4 4 5 6 7 8 8 7 7 7 8 10 10 9 9 10 9 10 10 8 5 7 12 6 8 6 7 7 8 8 9 9 7 7 13 8 9 10 12 10 7 12 13 13 13 12 12 12 11 8 6 5 4 4 4 5 6 7 8 8 9 10
8 8 8 8 8 9 9 9 9 9 8 8 7 6 7 7 7 6 4 5 6 5 4 5 5 6 7 9 10 9 8 8 9 9 10 10 8 8 7 7 8 8 8 9 12 14 5 1 2 2 2 5 6 8 9 9 8 8 7 7 8 8 7 7 7 10 11 11 12 11 10 8 7 6 5 3 2 3 4 5 6 6 7 8 9
7 8 8 7 7 8 8 8 7 7 7 7 7 7 8 9 9 8 6 7 7 6 5 6 4 5 7 9 10 11 8 9 9 9 9 8 7 7 6 8 10 9 8 8 12 10 12 1 5 0 2 4 6 5 11 11 9 6 9 7 4 5 6 7 6 5 8 10 10 9 9 9 8 6 4 3 3 3 4 5 5 6 7 7 8
5 6 7 7 7 7 6 6 6 6 7 7 6 6 7 7 7 7 8 8 8 8 6 6 7 7 7 8 9 8 5 6 8 9 8 8 6 8 8 8 8 8 7 9 7 8 10 9 3 3 5 5 9 8 9 6 5 7 9 8 8 5 4 4 5 4 7 9 9 9 10 10 8 7 4 4 3 4 4 5 5 6 6 7 8
5 5 5 5 5 5 6 5 5 5 5 6 6 6 7 7 8 8 6 6 6 6 7 6 6 7 8 7 7 6 6 7 7 6 5 4 6 7 9 8 9 9 6 7 9 9 5 7 5 8 5 6 7 0 3 3 6 8 8 4 2 5 4 3 3 4 5 8 9 10 11 10 8 6 5 4 5 5 5 5 5 6 6 7 8
5 4 4 4 4 5 6 6 6 5 5 5 6 6 6 5 6 5 5 5 4 5 5 6 6 6 5 6 7 6 5 7 6 6 6 7 8 7 8 6 6 6 5 6 8 6 7 8 5 1 1 3 0 1 5 7 6 6 3 5 5 5 3 2 3 2 4 7 8 8 8 9 8 7 6 5 5 6 6 5 5 5 5 7 8
4 4 4 4 4 5 5 6 5 6 5 4 5 5 4 4 4 4 4 4 4 4 5 5 6 5 6 6 5 5 5 6 7 7 6 6 5 4 5 4 4 5 6 6 5 6 6 6 3 2 1 4 2 2 4 6 7 6 4 2 1 1 3 4 3 2 2 3 3 2 6 7 7 7 6 6 7 7 7 5 4 4 5 7 9
4 4 4 3 3 3 4 3 3 4 4 4 4 4 4 4 4 4 4 5 5 6 5 4 4 4 4 5 5 4 5 6 7 7 7 5 5 6 6 5 4 5 6 6 6 6 6 6 5 4 5 5 4 5 2 3 0 1 5 3 6 3 3 5 5 3 2 2 3 7 7 6 7 5 7 7 8 8 7 5 3 5 6 8 9
4 4 3 3 3 3 4 4 4 4 3 4 4 4 4 5 6 5 4 5 5 4 4 4 3 3 3 3 4 4 4 5 5 6 5 7 4 5 4 4 5 5 7 5 4 4 4 4 5 4 3 3 2 1 3 3 4 3 7 9 11 9 8 5 5 6 3 3 3 4 6 6 6 6 7 7 8 9 8 5 4 5 6 8 9
3 3 3 3 3 3 3 3 3 3 4 4 4 5 5 3 2 3 5 5 4 4 4 4 4 4 4 3 3 3 3 6 8 7 7 6 5 6 3 4 4 4 3 3 4 4 5 5 5 4 4 6 5 5 5 6 12 12 5 6 6 4 4 4 5 3 4 4 3 4 6 7 6 6 5 4 5 7 6 5 4 4 7 8 9
2 2 3 4 4 4 4 3 3 3 4 3 4 5 5 3 3 3 3 3 4 4 5 5 4 4 3 3 2 2 3 4 5 5 6 7 7 6 4 5 6 5 5 4 3 3 4 5 8 7 7 8 7 9 9 9 5 2 4 7 7 2 3 3 3 5 4 4 4 6 7 6 7 6 5 6 4 4 5 3 2 3 5 8 10
4 4 4 5 4 4 4 4 4 4 4 4 6 6 6 6 4 4 4 4 3 4 4 4 4 4 2 0 0 2 2 3 3 3 4 4 4 4 4 7 6 6 5 4 4 5 5 6 6 4 7 9 7 7 8 5 4 7 6 4 5 4 6 5 7 0 3 7 6 6 7 6 6 6 5 6 4 4 3 4 4 5 7 9 10
5 4 6 6 5 5 5 5 5 5 5 6 6 6 7 7 7 4 4 3 3 3 3 3 3 3 2 0 1 1 0 1 1 1 1 2 1 1 1 3 4 5 4 5 5 4 5 7 6 7 6 8 6 4 5 5 7 6 5 5 6 7 7 7 6 6 3 7 6 5 7 3 4 4 6 6 3 4 4 4 5 6 8 9 10
4 5 6 6 6 5 6 6 6 6 5 6 7 8 7 6 7 6 4 3 3 3 2 2 2 1 1 1 1 1 2 3 2 1 1 1 3 3 2 2 4 6 6 5 3 2 2 6 7 7 7 5 5 6 5 3 2 5 3 5 5 6 6 7 8 3 3 6 4 5 5 2 5 5 6 4 3 3 3 3 5 7 8 9 9
6 6 5 6 5 6 6 7 6 5 5 7 8 8 7 7 7 6 3 3 4 3 4 3 2 2 2 3 2 1 0 1 1 2 2 2 2 2 1 2 3 3 4 4 6 6 4 4 4 6 3 3 6 3 3 5 5 7 7 8 6 7 8 9 2 3 3 6 7 4 3 3 3 3 6 4 3 3 3 4 6 7 9 9 9
7 7 6 6 6 5 6 5 5 5 6 7 8 7 6 6 7 6 3 3 3 3 3 3 3 4 4 4 4 4 3 3 3 3 3 2 2 1 1 2 2 1 1 1 3 3 3 3 5 6 4 3 5 4 3 5 9 6 6 5 6 6 2 3 1 2 1 5 3 3 6 0 0 2 4 3 3 4 4 6 8 8 9 9 8
4 4 5 4 6 5 5 4 4 5 5 7 7 7 8 8 8 5 4 4 3 3 3 3 3 3 4 5 4 4 3 3 3 5 4 4 2 2 2 3 3 1 0 1 1 2 3 4 4 4 4 3 5 4 4 6 3 3 5 5 5 4 4 3 8 3 4 2 5 3 2 2 2 4 3 1 2 4 4 4 7 9 10 9 7
6 6 6 5 5 6 5 5 5 4 4 5 7 7 8 9 8 5 5 4 4 3 3 3 4 4 4 4 4 4 4 4 6 7 7 6 2 2 2 3 3 2 4 1 3 0 3 4 4 5 6 7 7 7 8 8 7 6 6 4 4 4 4 6 7 4 4 4 3 4 1 4 3 4 4 2 2 4 4 2 2 7 10 12 9
8 7 6 5 4 4 5 6 6 5 4 5 7 7 8 10 8 6 5 5 4 4 3 2 2 2 2 5 5 4 5 4 6 6 7 6 3 2 2 2 3 4 5 1 0 1 2 3 3 4 5 6 6 7 8 9 10 8 7 8 4 6 7 7 7 1 1 2 3 5 2 5 0 0 1 3 2 3 2 0 1 3 8 6 6
6 6 5 5 4 4 4 5 6 6 4 5 7 7 9 10 7 5 5 5 4 4 4 3 2 2 3 4 7 6 4 3 5 5 7 6 3 3 3 1 3 5 4 2 3 3 2 0 0 1 0 1 0 1 2 8 11 9 6 3 4 6 7 5 4 3 5 3 4 8 5 2 3 2 3 3 4 2 2 1 0 1 1 1 1
Wind_Direction
188 201 177 204 212 190 191 204 201 209 196 227 225 243 253 243 255 266 284 282 279 279 270 270 266 256 237 266 265 280 268 260 186 156 183 208 215 220 234 269 294 303 339 35 11 359 345 327 302 189 309 168 132 126 119 109 106 106 105 102 100 97 92 90 88 85 82 78 75 71 67 64 61 59 55 52 48 44 42 39 35 33 30 28 26
195 195 184 213 215 214 210 208 208 200 193 223 221 228 239 241 250 255 259 261 265 261 264 268 254 239 241 249 268 264 251 260 157 176 183 186 216 219 236 276 301 276 64 47 356 341 309 288 264 232 192 187 141 127 118 112 114 112 110 107 105 101 98 95 93 88 83 79 75 72 67 64 60 57 53 51 47 44 40 37 34 30 29 28 24
195 191 199 206 212 213 218 211 217 214 205 225 212 219 229 230 229 232 238 248 254 260 260 267 278 284 262 253 260 268 273 272 147 146 167 189 206 227 244 307 315 71 90 33 344 314 302 267 227 207 184 158 141 134 121 120 120 120 115 113 111 106 103 100 96 90 84 79 75 71 68 63 60 56 53 50 47 43 39 35 33 28 27 25 21
197 196 198 204 208 212 220 205 221 216 209 222 222 221 226 241 247 241 243 244 264 273 256 254 270 265 276 265 270 278 269 263 178 175 160 161 203 220 279 338 358 77 44 18 306 312 286 261 250 182 153 145 141 130 131 131 129 126 123 119 114 110 107 104 97 91 85 80 74 71 67 63 60 57 52 50 47 42 38 34 31 27 24 20 19
203 200 201 205 209 212 217 218 218 213 207 216 226 232 242 255 261 249 263 258 268 271 272 256 267 267 265 266 286 276 259 256 177 160 175 174 191 190 163 148 38 72 68 356 328 306 290 297 285 188 160 153 146 143 143 141 137 132 130 123 118 115 110 104 97 91 87 80 75 71 65 63 59 55 52 50 46 40 36 33 29 25 21 18 17
198 205 198 205 210 214 216 220 218 211 207 201 216 218 230 236 248 241 247 240 250 257 264 264 258 273 274 257 262 255 265 255 194 188 165 179 192 181 168 157 138 95 14 353 353 347 331 323 312 259 168 159 156 148 152 149 143 136 133 127 121 119 115 107 100 92 86 81 76 70 67 63 60 55 52 48 44 39 35 31 25 22 19 16 16
202 197 202 203 210 218 218 223 212 202 204 207 212 221 215 228 229 232 249 247 247 252 235 240 251 262 261 277 268 271 281 256 219 172 185 183 173 179 169 155 156 177 268 347 17 5 1 339 293 169 146 143 160 161 157 154 149 144 138 131 127 119 112 106 99 94 86 81 75 71 66 63 58 55 51 46 40 36 34 29 22 18 17 14 12
205 199 202 205 208 215 221 218 212 195 205 209 204 218 216 227 230 211 232 247 239 254 227 241 246 255 260 264 260 270 274 269 255 207 191 156 175 174 166 163 163 181 214 45 35 30 38 38 41 34 93 169 170 173 169 162 156 148 143 137 129 121 113 107 102 97 89 82 75 71 67 61 57 54 49 44 38 31 30 26 22 17 13 9 9
208 204 205 208 211 216 218 215 206 201 203 205 205 212 208 218 232 219 213 234 227 242 251 236 252 255 271 283 276 278 273 249 242 198 153 179 179 173 169 178 170 184 191 135 77 66 52 56 61 53 28 359 182 180 179 172 162 156 152 145 134 123 113 109 105 97 93 83 79 74 66 58 55 51 47 42 34 30 26 22 21 14 11 8 4
209 207 212 212 211 211 216 213 205 207 210 205 214 207 214 209 231 223 213 222 230 228 242 245 241 261 272 276 280 276 259 249 234 172 175 176 180 188 196 177 173 178 176 161 133 102 79 61 67 62 42 4 220 184 186 180 173 168 163 151 138 126 119 113 106 103 97 90 79 73 62 59 53 48 45 36 29 24 22 21 17 11 9 4 2
209 208 212 215 215 215 217 214 204 208 212 214 219 214 214 218 220 235 221 220 222 225 232 242 252 263 274 273 284 275 266 257 220 190 187 192 193 193 158 192 173 166 174 164 149 124 101 77 83 74 56 36 1 255 198 188 186 179 176 162 148 136 128 119 113 108 103 97 84 64 64 58 49 47 41 32 21 14 17 16 13 10 6 0 0
212 210 213 215 215 217 219 216 208 203 210 217 221 215 216 218 227 226 233 242 241 249 248 246 285 288 278 286 271 265 265 247 226 228 211 191 194 169 184 165 179 169 175 172 151 134 117 116 103 102 90 52 19 15 9 14 323 194 189 174 163 148 138 132 123 115 110 109 83 70 59 51 43 39 34 22 13 5 9 9 9 7 2 359 358
215 211 215 216 219 218 217 220 210 205 212 221 220 222 219 217 226 219 228 240 250 224 240 149 286 294 291 276 288 254 245 239 229 219 219 208 169 179 165 164 183 184 185 164 158 141 138 129 129 121 105 95 50 19 10 2 343 237 193 188 177 169 153 145 136 125 125 108 98 76 52 44 39 33 26 12 1 357 2 4 5 2 358 359 357
210 212 215 213 218 219 217 219 210 214 219 224 226 225 223 220 213 239 213 224 240 203 203 126 244 227 273 315 319 301 268 236 234 230 205 195 185 177 173 180 184 184 165 163 157 149 146 145 142 134 136 137 126 66 7 350 334 328 203 195 198 183 170 156 147 145 144 148 122 89 44 31 29 24 22 1 350 351 353 359 359 355 355 356 352
212 210 214 215 219 219 220 217 216 211 219 226 222 227 217 219 208 217 230 229 239 215 190 187 225 147 141 346 286 334 329 333 281 240 202 184 170 186 181 188 190 175 167 160 169 169 169 164 158 161 166 161 169 170 172 277 317 344 5 7 335 196 178 169 165 163 164 171 146 89 46 18 8 21 14 352 342 341 348 351 347 349 351 349 347
214 213 215 217 215 219 218 216 219 209 215 223 221 226 219 220 215 220 215 241 215 239 193 198 183 134 276 218 227 123 302 277 274 285 204 185 177 189 172 194 176 150 156 186 188 178 183 174 179 185 183 178 179 175 172 206 223 14 357 343 334 287 185 177 176 180 179 173 184 139 47 351 352 7 1 346 333 336 340 339 340 341 342 342 340
215 215 213 218 217 218 217 218 217 213 210 222 224 223 221 220 215 217 211 222 238 231 229 191 206 206 177 99 3 307 230 253 7 279 66 152 219 178 184 177 176 184 190 196 173 190 182 188 197 195 195 191 183 177 174 184 182 193 323 323 312 338 285 190 187 190 188 190 187 211 262 304 325 342 352 334 327 330 329 330 329 330 332 334 332
217 217 216 215 219 218 219 219 219 217 214 223 229 228 225 219 214 216 225 221 233 231 241 225 215 216 224 221 190 218 191 241 104 276 317 229 161 181 189 193 175 188 205 188 190 195 191 198 195 200 198 198 192 177 172 177 190 196 199 246 249 228 275 228 198 190 199 196 203 245 267 279 298 329 330 321 313 314 316 316 317 319 323 326 328
221 218 218 216 219 220 219 221 223 222 219 224 229 227 227 223 209 212 222 217 211 238 231 221 219 246 237 245 264 233 170 149 234 82 314 305 142 170 189 170 170 185 203 213 205 195 204 201 201 202 201 197 192 184 173 184 192 196 203 216 215 208 206 210 202 199 188 193 194 241 261 274 280 294 303 300 297 297 300 304 305 310 316 322 326
216 217 217 215 214 219 217 222 223 224 216 223 229 228 227 223 207 214 217 211 210 224 236 208 208 225 202 232 239 230 236 293 196 221 232 240 254 257 80 176 171 199 211 215 207 205 201 203 204 202 200 200 192 186 184 186 194 202 213 219 210 205 206 197 189 183 195 215 234 253 266 266 272 274 274 279 282 287 293 299 302 307 313 320 324
210 213 213 216 210 213 215 221 221 223 214 226 227 221 220 217 213 209 212 215 211 219 225 226 209 227 176 225 228 232 229 226 230 206 212 223 244 177 209 351 220 224 220 216 214 211 208 206 203 195 193 195 194 192 186 185 193 200 212 218 214 207 207 199 187 192 190 207 227 244 255 257 262 265 267 275 280 287 293 301 307 309 316 322 325
207 210 212 211 212 209 215 220 222 222 215 224 225 222 220 219 219 217 216 221 217 215 221 226 219 220 213 214 212 229 237 248 230 220 269 214 234 207 193 183 203 229 204 214 217 215 215 214 202 197 200 197 193 193 191 188 190 194 208 215 220 214 211 202 194 193 197 204 213 228 241 250 258 271 278 283 289 293 298 305 315 318 319 324 327
197 210 211 207 212 210 214 221 222 221 220 222 224 223 221 222 224 221 220 220 222 221 223 228 226 224 220 219 224 216 218 220 222 211 217 222 251 253 210 199 208 223 219 212 210 215 213 207 201 207 205 198 193 196 198 197 191 198 200 206 214 218 213 203 199 198 199 207 212 220 230 241 256 274 281 291 295 298 303 311 319 320 319 322 326
207 209 209 206 211 215 215 218 221 221 223 222 224 221 221 220 222 222 224 220 218 214 221 229 230 232 228 224 229 228 230 229 223 208 208 222 215 227 218 184 292 241 271 204 221 214 218 210 210 210 203 194 195 198 199 196 202 201 196 203 205 208 209 208 204 201 204 207 214 223 229 236 246 259 273 285 293 300 306 314 319 317 314 317 326
213 216 214 206 212 219 217 218 221 219 222 220 222 221 219 217 219 223 228 231 230 225 222 219 217 220 224 221 223 224 227 229 228 222 225 229 215 232 225 162 216 219 216 143 230 245 227 223 211 212 196 195 197 200 200 195 196 201 194 204 201 208 212 214 211 206 206 209 216 223 231 234 242 251 264 278 289 298 305 310 315 314 312 315 323
212 216 209 209 212 217 220 223 221 219 217 222 224 223 223 227 230 234 236 238 236 233 233 232 228 224 224 228 222 222 225 219 221 212 209 201 228 226 224 212 217 231 51 216 311 226 246 214 211 209 195 198 201 200 199 196 193 198 194 196 205 207 210 214 215 208 209 212 216 222 228 233 240 248 259 272 286 298 305 309 314 314 311 313 326
213 217 206 209 214 216 219 224 226 226 225 226 229 232 233 233 231 233 235 235 248 256 247 242 242 240 232 229 232 237 243 230 218 222 213 211 212 217 212 220 260 238 245 196 265 227 231 222 206 208 204 201 201 203 200 192 189 187 191 195 206 208 204 207 212 212 214 215 216 220 227 230 236 242 251 266 279 290 300 308 313 316 316 318 326
216 206 210 206 213 217 218 223 224 225 226 226 227 228 229 231 230 225 228 226 239 245 256 250 242 236 230 227 226 228 219 212 207 213 210 209 210 205 189 207 224 242 214 234 235 249 216 230 244 215 204 201 198 200 196 188 189 187 185 192 199 209 209 208 213 217 215 216 215 218 223 229 231 234 245 257 266 282 298 307 312 314 312 313 319
211 204 210 210 214 214 219 221 222 224 226 225 226 225 223 222 224 228 229 225 226 237 242 244 245 245 247 242 239 237 229 218 220 226 227 215 213 211 202 208 211 229 202 221 235 239 232 206 221 221 199 194 194 189 186 200 191 181 179 183 191 201 214 210 214 217 218 215 216 218 222 227 230 233 244 255 264 279 295 302 309 311 312 314 318
207 209 208 214 216 216 221 223 223 224 225 227 226 226 226 227 226 226 225 220 223 228 228 226 233 236 239 247 248 245 227 203 206 208 211 210 216 211 214 215 205 217 222 220 243 215 239 235 222 228 182 197 191 189 194 199 192 183 179 179 185 197 208 210 214 218 219 217 215 218 223 229 233 235 244 258 265 279 297 307 311 313 315 313 319
211 212 212 216 215 217 219 224 223 223 223 225 224 228 230 236 231 233 229 228 235 236 221 216 226 220 226 233 228 236 221 220 210 212 219 218 220 217 217 210 207 217 226 225 246 245 188 220 228 213 177 197 190 191 197 205 196 188 182 181 186 194 202 209 213 218 218 216 215 218 225 232 233 237 248 260 272 287 297 309 312 314 317 315 320
212 211 215 215 213 217 217 221 225 225 224 225 222 223 224 227 234 237 231 225 227 225 222 223 232 224 234 240 233 228 213 204 215 224 228 227 223 220 221 213 214 220 227 237 239 254 205 219 220 210 186 180 179 186 201 204 205 195 188 190 190 188 199 203 212 214 216 216 218 221 226 230 232 240 252 264 278 290 302 305 308 316 320 316 318
207 215 217 216 214 216 216 218 221 222 223 227 220 222 231 235 236 237 232 224 229 230 214 230 230 231 235 242 243 236 224 218 219 222 224 225 215 217 220 217 219 205 185 203 232 249 261 238 287 268 224 153 191 202 194 198 192 199 197 202 189 188 188 197 204 213 213 217 220 223 227 232 236 239 239 250 266 280 286 292 302 313 316 315 317
203 216 216 215 215 215 217 219 220 222 224 227 222 220 224 228 237 232 227 225 224 227 223 238 249 248 244 244 244 240 218 219 227 229 231 228 214 214 203 215 224 217 207 204 228 232 245 145 244 290 160 185 204 197 203 191 200 188 200 204 210 198 194 194 196 204 213 214 218 221 226 231 232 229 217 201 236 257 268 282 297 301 303 310 310
213 217 216 212 213 212 214 218 217 219 222 222 219 220 226 229 236 236 230 228 228 228 225 230 234 239 241 240 244 242 233 230 234 238 234 230 213 207 206 203 218 223 205 211 214 230 237 238 165 198 203 196 210 202 212 207 194 193 198 204 199 197 216 196 188 190 213 209 215 220 227 229 225 215 185 204 222 237 255 271 283 292 298 305 306
206 223 221 215 215 210 212 215 215 217 220 220 220 219 225 226 235 241 237 225 221 223 229 239 240 235 235 241 246 245 239 238 244 248 252 243 214 208 210 209 211 218 196 199 217 227 227 240 228 204 197 185 232 183 168 160 182 197 210 198 186 209 211 201 187 193 209 207 214 222 227 224 215 189 195 209 221 232 246 262 276 287 296 301 301
203 193 207 204 205 207 210 210 209 213 219 219 225 229 230 231 226 225 222 225 230 236 242 246 252 251 251 242 251 249 232 234 249 244 234 223 224 222 225 211 200 207 186 191 214 211 215 227 242 214 116 232 348 154 176 180 199 203 198 202 205 214 214 228 206 199 195 202 213 217 216 212 198 199 207 212 221 229 239 248 268 282 291 297 296
190 189 187 190 191 203 206 212 206 208 209 213 221 228 221 206 207 212 221 229 238 239 240 237 238 240 241 246 247 242 222 222 234 237 232 232 235 242 240 216 201 178 197 207 201 208 216 237 225 238 277 222 258 235 200 208 186 190 198 229 326 257 205 232 236 187 170 157 146 200 207 205 201 206 208 215 221 224 227 236 257 276 285 287 287
183 199 206 196 209 187 210 182 191 197 190 180 191 205 211 213 213 218 230 232 233 234 235 242 251 255 249 249 254 247 226 221 230 234 234 233 218 226 216 206 186 178 201 201 187 196 211 231 232 196 202 226 211 238 168 168 20 179 196 172 249 226 224 213 219 203 164 189 209 207 207 202 207 203 217 215 215 217 220 227 238 264 276 278 277
204 211 211 206 227 194 213 201 204 192 191 189 198 207 211 215 208 211 220 236 241 248 252 248 250 257 254 248 246 234 221 225 220 233 214 226 217 231 208 176 175 184 202 183 169 170 184 207 220 221 211 207 233 87 50 137 201 231 198 190 210 212 215 208 213 197 190 176 210 215 209 197 204 220 218 217 216 217 222 216 223 254 271 273 275
195 200 199 200 204 220 215 199 206 197 198 208 205 207 211 221 201 224 226 231 242 261 266 259 247 237 233 228 227 225 210 218 218 220 220 219 204 228 209 161 164 181 175 164 186 191 216 219 240 222 214 216 214 175 182 182 201 217 184 173 225 214 179 203 235 211 186 187 198 203 217 202 216 223 196 212 218 215 216 211 212 253 271 271 273
202 204 195 203 199 205 208 214 206 198 211 214 210 211 205 207 208 225 241 244 236 233 240 251 256 228 217 212 213 189 181 195 202 210 217 213 205 208 190 173 178 182 196 193 194 200 200 214 227 217 223 230 212 204 212 216 202 71 155 182 213 186 101 216 275 220 184 183 186 225 229 206 205 231 207 231 211 205 193 181 185 217 255 268 277
217 214 207 210 210 208 208 204 210 216 220 209 200 200 209 213 206 203 208 230 227 234 237 247 260 270 266 183 110 127 144 168 183 195 208 212 212 212 171 190 189 182 183 197 219 196 211 227 237 224 232 241 228 208 221 209 175 202 205 184 193 149 196 194 235 311 182 173 201 218 240 194 190 226 236 239 223 207 209 204 232 268 271 274 279
211 202 209 215 215 220 221 222 219 214 219 213 196 195 199 204 198 194 196 209 209 222 243 246 268 283 284 326 38 68 107 128 135 123 112 118 154 170 146 187 213 233 219 192 205 201 213 230 236 231 231 237 242 204 221 188 214 196 205 178 188 192 197 212 226 226 187 180 189 201 244 176 185 219 251 246 211 217 214 214 254 272 275 275 282
194 195 209 205 212 207 201 206 218 216 215 205 198 199 196 194 197 192 193 188 182 211 218 235 245 275 358 5 359 19 43 72 95 112 125 115 90 91 116 171 219 229 248 265 257 223 202 230 236 242 218 232 242 239 210 207 126 193 176 200 207 204 206 213 224 197 217 198 174 210 240 214 169 212 243 247 189 198 217 239 267 279 273 274 281
197 205 208 211 209 200 201 204 210 208 208 204 197 197 195 193 195 187 194 185 182 180 190 190 174 178 186 185 189 259 81 108 133 145 139 137 136 136 163 200 221 230 232 247 260 266 214 219 230 246 243 180 241 235 196 163 159 198 189 219 196 207 212 220 187 191 169 183 193 150 281 233 189 199 248 268 139 199 184 216 252 263 262 262 277
196 201 202 207 211 206 207 206 202 210 216 202 201 195 194 191 186 177 165 163 166 172 172 164 169 181 185 183 174 183 179 188 184 165 152 154 149 150 185 223 226 238 213 225 234 238 222 197 222 244 251 212 236 230 200 192 206 209 195 203 194 203 145 57 305 183 177 196 211 154 244 24 284 179 242 187 171 196 195 223 244 255 247 243 266
204 200 210 202 200 203 204 199 204 220 221 204 198 193 187 185 166 147 151 163 169 164 151 152 164 176 176 176 170 175 183 185 176 171 169 157 155 183 251 273 286 310 304 122 163 181 182 199 207 211 212 210 217 219 202 199 181 106 83 68 76 96 140 192 238 191 219 195 187 196 251 271 202 189 237 188 164 228 218 181 231 247 239 229 256
192 200 200 194 197 193 194 200 204 224 223 217 203 195 184 168 148 147 149 149 153 153 174 177 175 173 177 169 160 173 180 186 179 182 177 156 154 180 227 269 289 320 288 320 0 45 200 201 208 212 220 222 224 217 207 193 158 135 104 108 192 165 168 226 249 218 245 151 226 202 310 284 198 190 266 264 240 268 258 202 167 235 236 221 241
195 196 189 195 192 190 188 199 197 198 213 218 212 202 185 171 159 156 156 152 165 176 172 165 156 152 157 164 177 190 196 195 176 180 177 159 174 186 199 258 295 292 283 272 51 3 35 125 153 182 196 211 212 207 205 187 162 157 152 208 197 158 219 221 252 245 323 212 221 165 146 237 34 123 284 277 314 252 262 276 182 226 233 229 246
190 176 179 186 188 192 196 196 195 193 200 211 214 204 188 178 165 157 157 156 164 187 171 162 155 156 184 195 202 202 197 178 182 184 180 163 177 180 180 163 253 268 254 171 183 204 237 204 301 39 20 359 215 176 209 185 175 193 209 234 127 184 224 241 262 343 317 263 207 173 192 254 124 255 141 339 311 259 135 269 268 126 151 148 240